STARLINK-35344

Satellite information

Favourite Embed

Satellite Type and Status

PAYLOADIN ORBIT

Key statistics

Satellite STARLINK-35344 at a glance.

Uptime

30

Days in orbit

Revolutions

≈ 15.4

Per day

Orbit

SSO

Sun Synchronous Orbit

Inclination

97.6

Latest

Satellite identification and parameters

Extended collection of information and parameters for STARLINK-35344.

Object identification

Identified? True

Debris? False

Object name: STARLINK-35344

International designator: 2025-211E

Object number (NORAD): 65656

Object ID (CCSDS): 65656

Country: UNITED STATES OF AMERICA (US)

Current information (Y/N): Y

Orbital parameters

Period: 93.275 minutes

Inclination: 97.6039 deg

SMA: 6812.971 km

Apoapsis: 436.122 km

Periapsis: 433.55 km

RAAN: 334.1481 deg

Eccentricy: 0.0001887

Argument of periapsis: 58.1877 deg

Mean anomaly: 0.1096 deg

Mean motion: 15.43824582 rev/day

Mean motion (dot): -0.02300862 rev/day2

B* drag term: -0.056824927 1/REarth

Two-line elements (TLE)

Creation date: Oct. 19, 2025, 2:20 a.m.

Reference frame: TEME

Reference center: EARTH

Epoch: Oct. 19, 2025, midnight UTC

TLE line 0: 0 STARLINK-35344

TLE line 1: 1 65656U 25211E 25292.00003472 -.02300862 00000-0 -56825-1 0 9995

TLE line 2: 2 65656 97.6039 334.1481 0001887 58.1877 0.1096 15.43824582 5685

Live tracking on map

Real-time ground track for satellite STARLINK-35344.

In-orbit conjunctions

There are no conjunctions computed for STARLINK-35344, at the moment. Check back to stay up to date, as we update our databases every day.

Go to all conjunctions

Associated space launch

A batch of 24 satellites for the Starlink mega-constellation - SpaceX's project for space-based Internet communication system.

STARLINK-35344 was lifted into orbit during the mission ‘Falcon 9 Block 5 | Starlink Group 17-12’, on board a Falcon 9 space rocket.

The launch took place on Sept. 19, 2025, 4:31 p.m. from Space Launch Complex 4E.

For more information about the launch, click the button.

Launch to space Falcon 9 Block 5 | Starlink Group 17-12
Falcon 9 Block 5 | Starlink Group 17-12

Agency: SpaceX

Status: Launch Successful

Launch date: Sept. 19, 2025, 4:31 p.m. UTC

Rocket: Falcon 9

Launch pad: Space Launch Complex 4E

Location: Vandenberg SFB, CA, USA

...

Latest news about this satellite

News about space launch
Live coverage: SpaceX to launch 24 Starlink satellites on Falcon 9 rocket from Vandenberg SFB

The Starlink 17-12 mission will send the two dozen broadband internet satellites into a polar, low Earth orbit. SpaceX is targeting liftoff from pad 4E at Vandenberg Space Force Base at 8:43 a.m. PDT (11:43 a.m. EDT / 1543 UTC).

News about space launch
Launch Roundup: Starlink, NRO, and New Shepard missions scheduled

Another busy week of launches has arrived, with SpaceX dominating the launch manifest with four… The post Launch Roundup: Starlink, NRO, and New Shepard missions scheduled appeared first on NASASpaceFlight.com.


Newsletter sign-up

Weekly statistics, charts and insights to help you stay on top of the space industry.